Wind_Speed
16 18 18 17 16 17 19 19 19 18 19 18 18 18 18 18 18 17 17 17 18 17 17 16 15 14 14 14 14 14 14 14 14 15 15 15 15 15 15 14 14 14 13 13
17 17 18 18 18 19 20 21 21 20 20 19 18 18 18 18 17 18 17 17 18 17 17 16 15 14 14 14 15 15 15 15 15 15 15 15 15 15 15 15 14 14 14 14
19 19 20 20 19 19 21 21 21 21 20 19 19 19 19 19 19 19 17 17 17 17 17 17 16 15 15 15 15 16 16 15 14 14 15 15 15 14 14 14 14 13 13 14
22 22 22 20 19 20 21 21 21 21 20 20 20 19 19 19 20 19 18 17 18 18 18 17 17 17 17 17 17 16 16 15 15 15 14 14 14 14 14 14 14 14 14 15
24 23 22 20 19 20 20 20 21 21 19 19 19 19 18 18 19 19 18 18 19 20 18 18 18 18 17 17 17 17 16 16 16 16 15 15 15 15 14 14 14 14 15 15
25 25 23 20 20 20 19 20 20 20 19 19 19 18 18 19 19 19 19 19 19 19 18 19 18 18 18 18 18 17 17 17 16 16 16 15 15 15 15 15 15 15 16 16
26 26 25 22 21 20 20 19 19 19 19 19 19 19 19 18 19 19 19 19 19 19 19 18 18 19 19 19 18 18 17 17 16 16 16 16 16 16 16 16 16 16 17 18
27 27 26 24 23 22 21 21 19 18 19 21 20 19 19 19 19 19 19 20 21 20 19 19 19 20 20 19 19 18 18 17 17 17 16 16 17 17 17 17 17 17 18 19
27 26 26 24 23 23 22 22 21 21 21 22 21 21 21 22 22 21 21 21 21 20 20 20 20 20 20 19 19 20 19 18 17 17 17 18 18 18 19 19 19 19 20 19
27 27 27 26 25 25 25 24 24 24 23 24 23 22 23 23 23 23 23 22 22 22 21 20 20 21 21 20 20 20 19 18 18 18 18 18 18 19 20 20 19 19 19 19
28 28 29 28 27 26 26 25 24 25 26 25 25 25 25 25 24 24 24 23 23 23 23 22 22 22 21 20 19 19 19 18 19 19 19 18 19 19 20 20 20 19 19 18
28 28 28 28 28 27 27 26 26 26 26 26 26 26 25 25 25 25 24 23 23 23 23 23 23 23 23 21 20 20 19 19 20 20 20 20 20 20 20 20 19 19 19 18
28 29 30 29 28 28 28 27 26 26 25 25 25 25 26 25 24 24 24 23 23 23 23 23 23 23 22 21 21 21 20 20 20 20 21 21 21 21 20 20 19 19 18 17
30 30 29 28 27 27 27 27 27 26 25 26 27 26 26 26 26 25 24 23 22 22 23 23 23 22 22 21 21 21 21 20 20 20 21 21 21 22 21 20 19 18 17 16
29 29 29 28 27 26 26 26 26 26 26 26 26 27 27 26 26 25 25 24 23 23 23 23 23 23 22 21 21 21 21 22 21 21 21 21 21 22 21 20 19 18 17 16
26 27 27 27 27 27 27 26 26 26 25 25 26 26 26 26 26 26 25 24 24 24 24 24 24 24 23 22 22 22 22 22 22 22 22 21 21 20 20 19 18 17 17 17
25 25 25 25 26 27 27 26 26 25 25 25 25 25 25 25 25 25 25 24 24 24 24 24 24 24 24 23 23 23 22 23 23 22 21 21 21 20 19 18 18 17 17 17
25 25 25 24 25 25 26 26 26 26 25 25 25 24 24 23 23 23 23 23 23 24 25 25 24 24 24 24 24 23 23 23 22 21 21 20 20 19 18 17 17 16 17 16
23 24 25 25 26 26 26 26 26 26 26 26 26 25 25 24 24 23 23 23 23 24 24 25 25 24 24 24 24 23 23 22 21 21 21 20 19 19 19 18 17 17 17 17
23 24 24 25 26 26 27 27 27 27 26 26 25 25 25 25 24 24 24 24 24 25 25 25 24 24 24 24 24 23 22 21 21 21 20 20 20 20 19 19 18 18 17 17
23 23 23 23 24 25 26 26 26 27 26 25 25 25 25 25 25 24 24 24 24 24 24 24 23 23 23 23 23 22 22 21 21 21 20 20 19 19 19 18 18 18 17 17
24 24 24 25 26 26 26 25 25 26 26 25 25 25 24 24 25 25 24 24 24 24 23 23 23 23 22 21 21 21 21 21 21 21 20 20 19 19 19 19 19 18 18 18
25 25 26 26 27 26 26 25 25 25 25 24 24 24 24 24 24 24 24 24 23 23 22 22 22 22 21 21 21 21 20 20 20 21 20 20 20 20 20 19 19 19 18 18
26 26 27 26 26 26 25 25 25 25 25 24 24 25 25 24 23 23 22 22 22 22 22 22 22 21 21 20 21 20 20 20 20 20 20 20 20 20 20 20 19 19 18 17
24 25 25 25 25 24 24 24 23 23 23 23 23 24 24 23 23 22 22 22 22 22 22 22 21 21 21 21 21 21 21 21 21 21 21 20 20 20 20 20 19 19 18 18
23 23 24 23 23 23 23 23 22 21 21 21 21 22 22 22 23 22 22 22 21 21 22 22 22 22 22 22 22 22 22 22 21 21 21 20 20 20 20 20 20 19 19 18
22 22 22 23 23 23 22 22 22 22 22 21 21 21 21 22 22 22 22 22 22 22 22 22 22 23 22 22 22 22 22 22 21 21 21 21 21 21 20 20 19 18 18 18
Wind_Direction
262 258 260 261 263 262 265 271 275 283 288 292 294 297 298 298 298 302 306 308 309 310 313 313 313 311 312 313 312 311 307 307 306 305 303 301 299 298 296 296 297 298 300 300
259 258 260 263 263 265 267 269 274 279 283 289 293 296 298 299 299 301 304 306 307 309 311 310 310 307 308 309 309 309 309 306 304 303 303 303 298 296 294 293 294 294 294 294
265 263 263 264 267 268 268 269 273 278 282 286 290 292 295 297 298 301 302 305 306 307 308 308 307 305 304 305 305 307 309 307 303 303 302 300 298 298 294 292 292 292 294 296
266 264 261 263 264 267 268 270 273 275 278 282 286 289 292 295 296 298 302 303 304 306 305 303 304 305 304 303 303 304 304 304 304 304 305 302 301 301 296 291 292 293 295 295
263 264 263 263 263 266 270 272 275 277 279 282 285 288 289 292 294 296 297 299 301 304 303 301 303 304 304 303 302 303 302 301 301 301 303 302 302 300 297 293 292 293 294 294
264 266 266 266 266 267 269 272 277 280 280 282 283 284 287 290 293 295 296 296 298 302 302 302 301 302 303 302 301 300 300 301 298 297 300 299 299 299 297 294 294 294 294 294
266 268 268 268 269 269 270 274 276 277 279 278 281 282 285 288 290 294 298 298 297 299 298 297 300 301 301 301 301 299 298 299 296 296 297 298 297 297 295 292 292 293 294 295
265 267 266 268 268 269 272 274 274 274 275 275 279 281 282 286 290 293 296 296 295 295 295 294 297 299 298 298 298 298 295 294 294 296 297 297 296 295 294 292 291 293 294 295
262 265 266 266 268 269 272 274 274 273 273 275 277 279 281 285 287 290 293 294 294 292 294 293 294 296 298 296 295 294 292 291 292 294 296 296 296 295 295 294 293 292 293 294
259 263 265 265 267 269 271 271 272 273 274 276 276 279 281 282 284 288 288 290 291 291 292 291 291 293 295 296 293 291 289 289 291 294 295 295 295 295 295 295 293 294 293 292
257 261 261 262 266 270 271 271 274 273 275 276 277 278 279 280 281 285 286 287 289 289 288 289 289 290 292 293 292 291 289 290 292 293 292 293 294 295 296 295 294 294 293 293
258 260 261 263 265 267 269 270 271 272 275 276 276 276 279 281 281 283 284 285 286 287 285 285 287 288 291 290 288 287 288 290 292 293 291 292 293 295 296 295 295 296 294 293
258 259 260 261 264 267 270 270 271 272 273 274 275 278 280 281 282 284 284 282 282 284 284 284 285 287 288 287 285 284 286 288 288 289 289 290 291 293 294 294 293 294 292 294
256 259 259 258 261 264 267 268 271 272 273 275 276 278 280 282 284 285 285 284 284 284 283 282 282 283 286 285 284 285 286 286 287 288 289 289 291 290 290 292 293 292 291 292
254 255 256 255 258 262 266 268 270 272 274 275 277 278 280 283 284 283 282 282 283 282 282 282 282 282 282 282 282 284 285 285 286 287 289 290 290 289 287 288 289 289 290 289
252 255 255 255 258 262 264 267 270 272 275 276 277 278 279 281 282 283 284 285 284 283 284 283 281 281 280 280 281 281 282 283 284 285 287 288 289 289 287 285 284 284 286 286
255 257 259 259 259 261 264 267 269 272 275 277 279 279 280 281 281 282 283 283 284 284 285 284 281 279 277 275 277 279 279 280 281 281 282 285 286 287 285 283 282 280 282 284
254 257 259 260 260 261 263 265 267 269 273 276 279 281 281 281 281 282 282 283 284 284 285 285 283 280 277 274 274 277 277 278 278 278 280 282 283 284 282 281 280 279 280 280
251 252 256 259 260 262 265 267 269 270 271 274 277 279 279 280 281 280 280 281 283 284 285 284 283 280 278 276 273 272 274 275 275 277 279 279 281 282 282 281 280 280 279 280
254 255 258 259 261 265 268 269 270 271 271 272 274 275 276 277 278 279 280 281 282 283 284 284 284 281 278 275 272 270 270 272 273 274 276 277 277 277 278 277 277 280 279 279
257 257 259 261 262 265 268 269 269 270 270 271 272 274 275 276 277 279 282 283 283 283 284 284 285 282 279 276 272 270 269 269 270 272 275 277 276 275 274 273 276 279 279 280
260 259 259 261 263 265 268 269 270 271 272 273 273 273 274 276 278 279 280 282 282 282 282 282 283 282 279 276 271 270 272 270 269 272 275 276 277 277 277 279 280 281 278 279
256 259 261 263 264 266 267 269 272 274 274 273 272 272 274 276 277 277 279 280 280 280 280 280 282 280 276 275 273 272 273 273 272 273 276 276 275 275 276 276 278 280 278 278
258 261 263 265 265 267 269 272 274 275 275 273 274 274 275 276 277 277 277 278 277 277 277 277 278 277 275 274 275 275 274 273 274 275 276 277 276 274 274 273 274 276 277 276
262 263 264 264 266 268 270 272 274 276 275 275 275 275 275 275 277 279 279 277 275 275 274 275 275 274 274 275 277 277 275 274 274 274 276 277 277 275 272 272 272 272 274 276
264 264 264 265 267 269 270 271 272 274 274 275 275 276 275 275 276 278 279 279 277 275 274 274 274 275 276 276 278 278 276 274 273 272 274 275 276 274 272 272 270 270 271 274
266 266 267 267 268 268 269 270 272 273 275 276 275 275 275 276 278 278 278 277 275 273 274 275 274 273 275 275 277 278 276 274 273 271 272 274 274 271 271 269 268 268 268 272
Height
5812 5811 5811 5811 5811 5810 5809 5808 5807 5807 5805 5805 5804 5802 5802 5800 5799 5798 5796 5794 5792 5789 5787 5785 5782 5779 5777 5775 5773 5771 5770 5768 5766 5764 5761 5759 5757 5755 5753 5752 5750 5749 5747 5746
5807 5806 5806 5806 5806 5805 5805 5803 5802 5802 5801 5801 5799 5798 5797 5796 5795 5793 5791 5790 5788 5785 5783 5781 5778 5776 5774 5772 5770 5768 5766 5764 5761 5759 5757 5755 5753 5751 5749 5748 5746 5745 5744 5742
5801 5801 5801 5801 5801 5800 5799 5798 5798 5797 5797 5796 5795 5794 5792 5791 5790 5788 5786 5784 5783 5781 5778 5776 5774 5772 5770 5768 5766 5764 5761 5759 5757 5755 5753 5751 5749 5746 5744 5743 5742 5741 5740 5738
5794 5795 5795 5798 5795 5794 5793 5793 5792 5792 5792 5791 5790 5789 5788 5786 5785 5783 5781 5779 5778 5776 5774 5772 5770 5768 5766 5764 5762 5760 5757 5755 5753 5751 5749 5747 5745 5743 5741 5740 5739 5737 5736 5734
5787 5787 5788 5790 5789 5788 5787 5787 5787 5787 5786 5785 5785 5784 5782 5781 5780 5778 5777 5775 5773 5771 5769 5767 5765 5763 5761 5759 5757 5755 5753 5751 5749 5747 5746 5743 5741 5740 5738 5736 5735 5734 5732 5731
5780 5780 5781 5784 5784 5783 5783 5781 5781 5781 5780 5780 5779 5779 5778 5776 5775 5774 5772 5770 5769 5767 5765 5763 5761 5759 5757 5755 5753 5751 5749 5747 5745 5743 5742 5740 5738 5736 5734 5733 5731 5730 5728 5726
5773 5773 5774 5776 5776 5777 5777 5777 5776 5775 5775 5775 5774 5774 5773 5771 5770 5768 5767 5765 5763 5762 5760 5758 5756 5754 5752 5750 5748 5746 5744 5742 5740 5739 5737 5736 5734 5732 5730 5728 5727 5725 5724 5721
5766 5767 5769 5769 5769 5770 5770 5770 5770 5770 5769 5769 5768 5768 5767 5766 5765 5763 5761 5760 5758 5756 5754 5752 5751 5749 5746 5744 5742 5740 5739 5737 5735 5734 5732 5731 5729 5728 5726 5724 5722 5721 5718 5716
5760 5762 5762 5762 5762 5762 5763 5764 5764 5763 5763 5763 5762 5762 5761 5760 5759 5757 5756 5754 5752 5750 5749 5747 5745 5743 5741 5739 5737 5735 5733 5732 5730 5729 5727 5726 5724 5723 5721 5719 5717 5715 5713 5711
5752 5752 5753 5754 5754 5755 5756 5757 5757 5757 5756 5756 5755 5755 5754 5754 5752 5750 5748 5747 5745 5744 5742 5741 5739 5737 5735 5733 5731 5729 5727 5726 5725 5724 5722 5720 5719 5717 5716 5714 5712 5710 5707 5705
5745 5745 5745 5746 5747 5748 5748 5749 5749 5749 5748 5748 5748 5747 5747 5746 5745 5743 5741 5740 5738 5737 5735 5734 5732 5731 5729 5727 5726 5724 5722 5721 5720 5718 5716 5715 5714 5712 5710 5708 5706 5704 5702 5699
5736 5737 5738 5739 5739 5740 5741 5741 5741 5740 5740 5740 5739 5739 5738 5737 5736 5735 5734 5733 5731 5729 5728 5727 5725 5724 5722 5721 5719 5718 5717 5716 5714 5712 5711 5709 5708 5706 5704 5702 5700 5698 5696 5694
5728 5729 5729 5730 5731 5732 5732 5733 5732 5732 5732 5731 5731 5731 5730 5729 5728 5727 5725 5724 5723 5722 5721 5720 5718 5717 5715 5714 5713 5712 5710 5709 5708 5706 5705 5703 5702 5700 5698 5697 5695 5693 5691 5689
5718 5720 5720 5722 5722 5723 5724 5724 5724 5724 5724 5723 5723 5722 5722 5721 5720 5719 5717 5716 5715 5714 5713 5712 5711 5710 5708 5707 5706 5705 5704 5703 5701 5700 5699 5697 5696 5694 5692 5690 5689 5687 5686 5684
5709 5710 5711 5712 5713 5715 5715 5716 5716 5716 5716 5715 5715 5714 5713 5713 5712 5711 5710 5708 5707 5706 5706 5705 5703 5702 5701 5700 5699 5698 5697 5696 5695 5693 5692 5691 5689 5688 5686 5684 5683 5682 5680 5679
5701 5701 5702 5704 5705 5706 5707 5707 5708 5708 5707 5707 5707 5706 5705 5704 5703 5702 5701 5700 5700 5699 5698 5697 5696 5694 5693 5692 5691 5691 5690 5689 5687 5686 5685 5684 5682 5681 5679 5678 5677 5676 5675 5674
5692 5693 5694 5695 5696 5697 5699 5699 5700 5699 5699 5699 5698 5698 5697 5696 5695 5694 5694 5693 5691 5690 5689 5688 5687 5686 5685 5684 5684 5683 5682 5681 5680 5679 5678 5677 5675 5674 5673 5672 5671 5670 5670 5668
5684 5686 5687 5687 5688 5689 5690 5691 5691 5691 5691 5691 5690 5689 5689 5688 5687 5687 5686 5685 5684 5682 5681 5680 5679 5677 5676 5675 5675 5675 5674 5674 5673 5672 5671 5670 5669 5668 5667 5666 5665 5665 5664 5662
5677 5678 5679 5679 5680 5681 5682 5682 5683 5683 5683 5683 5683 5682 5681 5680 5680 5679 5678 5677 5676 5675 5673 5672 5670 5669 5668 5667 5667 5667 5666 5666 5665 5665 5664 5663 5662 5661 5660 5660 5659 5658 5658 5657
5669 5670 5671 5672 5672 5673 5673 5674 5674 5675 5675 5675 5674 5674 5673 5672 5671 5670 5670 5669 5668 5667 5665 5664 5662 5661 5659 5659 5658 5658 5658 5658 5658 5658 5657 5656 5655 5654 5654 5653 5653 5652 5651 5650
5662 5663 5663 5664 5665 5665 5665 5665 5665 5666 5666 5666 5666 5665 5665 5664 5663 5662 5661 5660 5659 5658 5657 5656 5655 5653 5652 5651 5651 5650 5651 5651 5651 5651 5650 5649 5649 5648 5648 5647 5647 5646 5645 5644
5654 5655 5656 5656 5657 5657 5657 5657 5657 5657 5657 5657 5657 5656 5656 5655 5654 5653 5652 5652 5651 5650 5649 5648 5647 5646 5645 5644 5644 5644 5644 5644 5644 5644 5643 5643 5642 5642 5641 5641 5640 5639 5638 5638
5647 5647 5648 5648 5649 5649 5649 5649 5649 5649 5649 5648 5648 5648 5647 5647 5646 5645 5644 5644 5643 5642 5641 5641 5640 5639 5638 5637 5637 5637 5637 5637 5637 5637 5637 5636 5636 5635 5635 5634 5633 5633 5632 5632
5639 5639 5640 5640 5640 5641 5641 5641 5641 5640 5640 5640 5640 5639 5639 5639 5638 5637 5636 5636 5635 5634 5634 5633 5633 5632 5631 5630 5630 5630 5630 5630 5630 5630 5630 5629 5629 5628 5628 5627 5627 5626 5626 5626
5631 5631 5631 5632 5632 5632 5633 5633 5633 5632 5632 5632 5631 5631 5631 5630 5630 5629 5629 5628 5628 5627 5627 5626 5626 5625 5625 5624 5624 5624 5623 5623 5623 5623 5623 5622 5622 5621 5621 5620 5620 5620 5620 5619
5623 5623 5623 5623 5624 5624 5625 5625 5625 5625 5624 5624 5624 5623 5623 5622 5622 5622 5621 5621 5620 5620 5619 5619 5619 5618 5618 5618 5617 5617 5616 5616 5616 5616 5616 5615 5615 5614 5613 5613 5613 5613 5613 5613
5616 5616 5616 5616 5617 5617 5617 5618 5618 5617 5617 5617 5617 5616 5615 5615 5615 5614 5614 5613 5613 5612 5612 5612 5611 5611 5611 5610 5610 5610 5609 5609 5608 5608 5608 5608 5607 5607 5606 5606 5606 5606 5606 5606